DW0542 Weather Reports


Display with metric or nautical units.
time (UTC)temp
F
wind
direction
speed
MPH
gust
MPH
rain 1hr
in
rain 24hr
in
rain mn
in
humidity
%
barometer
mb
20260905144559 69 334 0.0 8.0 0.00 0.00 0.00 74 1009.4
20260905143200 70 339 4.0 15.0 0.00 0.00 0.00 74 1009.3
20260905141556 70 332 5.0 11.0 0.00 0.00 0.00 74 1009.4
20260905140056 70 339 5.0 12.0 0.00 0.00 0.00 74 1009.4
20260905134559 69 328 0.0 6.0 0.00 0.00 0.00 76 1009.5
20260905133056 68 324 1.0 10.0 0.00 0.00 0.00 78 1009.4
20260905131552 68 307 5.0 10.0 0.00 0.00 0.00 79 1009.6
20260905130051 67 326 0.0 6.0 0.00 0.00 0.00 80 1009.7
20260905124532 66 324 1.0 6.0 0.00 0.00 0.00 80 1009.6
20260905123018 66 326 0.0 10.0 0.00 0.00 0.00 81 1009.6
20260905121513 65 321 5.0 12.0 0.00 0.00 0.00 82 1009.3
20260905120011 65 320 6.0 9.0 0.00 0.00 0.00 82 1009.2
20260905114510 64 325 5.0 8.0 0.00 0.00 0.00 83 1009.1
20260905113010 64 318 4.0 9.0 0.00 0.00 0.00 83 1009.1
20260905111609 64 331 2.0 6.0 0.00 0.00 0.00 84 1009.0
20260905110008 63 326 0.0 0.0 0.00 0.00 0.00 85 1008.8
20260905104510 63 326 0.0 3.0 0.00 0.00 0.00 85 1008.7
20260905103043 63 299 3.0 6.0 0.00 0.00 0.00 86 1008.6
20260905101549 61 293 0.0 0.0 0.00 0.00 0.00 86 1008.6
20260905100033 62 293 0.0 3.0 0.00 0.00 0.00 86 1008.5
20260905094533 61 293 0.0 0.0 0.00 0.00 0.00 86 1008.5
20260905093032 61 293 0.0 1.0 0.00 0.00 0.00 86 1008.6
20260905091532 60 293 0.0 0.0 0.00 0.00 0.00 86 1008.5
20260905090002 60 293 0.0 0.0 0.00 0.00 0.00 87 1008.5
20260905084602 61 293 0.0 0.0 0.00 0.00 0.00 87 1008.4
20260905083059 60 293 0.0 0.0 0.00 0.00 0.00 87 1008.4
20260905080104 60 293 0.0 0.0 0.00 0.00 0.00 87 1008.4
20260905074555 59 293 0.0 0.0 0.00 0.00 0.00 87 1008.5
20260905073029 59 293 0.0 0.0 0.00 0.00 0.00 87 1008.6
20260905071527 59 293 0.0 0.0 0.00 0.00 0.00 87 1008.7
20260905070025 59 293 0.0 0.0 0.00 0.00 0.00 87 1008.7
20260905064518 59 293 0.0 0.0 0.00 0.00 0.00 87 1008.9
20260905063017 60 293 0.0 0.0 0.00 0.00 0.00 87 1008.9
20260905061515 60 293 0.0 0.0 0.00 0.00 0.00 87 1009.1
20260905060044 61 293 0.0 0.0 0.00 0.00 0.00 87 1009.3
20260905054551 61 293 0.0 0.0 0.00 0.00 0.00 87 1009.3
20260905053041 61 293 0.0 0.0 0.00 0.00 0.00 87 1009.3
20260905051541 61 293 0.0 0.0 0.00 0.00 0.00 87 1009.4
20260905050036 62 293 0.0 0.0 0.00 0.00 0.00 86 1009.5
20260905044535 62 293 0.0 0.0 0.00 0.00 0.00 86 1009.4
20260905043032 62 293 0.0 0.0 0.00 0.00 0.00 86 1009.2
20260905041531 63 293 0.0 0.0 0.00 0.00 0.00 86 1009.2
20260905040033 63 293 0.0 0.0 0.00 0.00 0.00 86 1009.2
20260905034531 63 293 0.0 0.0 0.00 0.00 0.00 86 1009.3
20260905033031 63 293 0.0 0.0 0.00 0.00 0.00 86 1009.2
20260905031529 63 293 0.0 0.0 0.00 0.00 0.00 86 1009.1
20260905030022 64 293 0.0 0.0 0.00 0.00 0.00 85 1009.2
20260905024520 64 293 0.0 0.0 0.00 0.00 0.00 85 1009.1
20260905023020 64 293 0.0 0.0 0.00 0.00 0.00 85 1009.1
20260905021517 65 293 0.0 0.0 0.00 0.00 0.00 85 1009.1
20260905020018 65 293 0.0 0.0 0.00 0.00 0.00 84 1009.3
20260905014511 65 293 0.0 0.0 0.00 0.00 0.00 84 1009.5
20260905013006 66 293 0.0 0.0 0.00 0.00 0.00 84 1009.7
20260905011505 67 293 0.0 0.0 0.00 0.00 0.00 83 1009.7
20260905010059 67 293 0.0 0.0 0.00 0.00 0.00 83 1009.6
20260905004623 67 293 0.0 0.0 0.00 0.00 0.00 82 1009.6
20260905003056 68 293 0.0 0.0 0.00 0.00 0.00 81 1009.4
20260905001551 69 293 0.0 0.0 0.00 0.00 0.00 79 1009.3
20260905000045 70 293 0.0 0.0 0.00 0.00 0.00 76 1009.1
20260904234541 71 293 0.0 0.0 0.00 0.00 0.00 74 1009.0
20260904233037 74 293 0.0 0.0 0.00 0.00 0.00 69 1009.0
20260904231536 75 293 0.0 0.0 0.00 0.00 0.00 65 1008.9
20260904230043 76 293 0.0 0.0 0.00 0.00 0.00 64 1008.8
20260904224528 77 277 0.0 3.0 0.00 0.00 0.00 62 1008.7
20260904223023 78 296 0.0 3.0 0.00 0.00 0.00 61 1008.7
20260904221524 78 302 4.0 10.0 0.00 0.00 0.00 59 1008.5
20260904220018 78 305 2.0 11.0 0.00 0.00 0.00 62 1008.5
20260904214521 78 303 4.0 13.0 0.00 0.00 0.00 60 1008.5
20260904213017 78 314 7.0 12.0 0.00 0.00 0.00 60 1008.5
20260904211515 78 299 8.0 14.0 0.00 0.00 0.00 56 1008.6
20260904210015 78 284 3.0 11.0 0.00 0.00 0.00 60 1008.6
20260904204513 78 282 6.0 14.0 0.00 0.00 0.00 58 1008.4
20260904203007 78 249 5.0 17.0 0.00 0.00 0.00 58 1008.5
20260904203004 78 249 6.0 17.0 0.00 0.00 0.00 58 1008.5
20260904201504 78 315 8.0 13.0 0.00 0.00 0.00 59 1008.7
20260904200003 78 265 2.0 12.0 0.00 0.00 0.00 59 1008.7
20260904194608 78 272 0.0 10.0 0.00 0.00 0.00 62 1008.7
20260904193100 78 296 7.0 11.0 0.00 0.00 0.00 62 1008.6
20260904191558 77 295 5.0 14.0 0.00 0.00 0.00 62 1008.6
20260904190058 78 295 6.0 12.0 0.00 0.00 0.00 62 1008.7
20260904184631 78 321 6.0 13.0 0.00 0.00 0.00 59 1008.8
20260904183027 78 328 7.0 14.0 0.00 0.00 0.00 58 1008.9
20260904181523 78 297 4.0 14.0 0.00 0.00 0.00 60 1008.8
20260904180022 77 317 8.0 15.0 0.00 0.00 0.00 59 1008.7
20260904174519 77 328 2.0 12.0 0.00 0.00 0.00 63 1008.8
20260904173021 77 296 5.0 13.0 0.00 0.00 0.00 65 1009.0
20260904171551 76 290 7.0 14.0 0.00 0.00 0.00 66 1008.9
20260904170052 76 317 5.0 11.0 0.00 0.00 0.00 68 1009.1
20260904164516 76 330 0.0 13.0 0.00 0.00 0.00 67 1009.1
20260904163016 75 301 7.0 12.0 0.00 0.00 0.00 69 1009.3
20260904161544 75 314 3.0 12.0 0.00 0.00 0.00 72 1009.3
20260904160041 75 299 2.0 13.0 0.00 0.00 0.00 72 1009.5
20260904154539 74 293 0.0 12.0 0.00 0.00 0.00 74 1009.7
20260904153049 74 290 7.0 12.0 0.00 0.00 0.00 74 1009.7
20260904151536 74 313 8.0 12.0 0.00 0.00 0.00 76 1009.9
20260904150044 74 299 6.0 10.0 0.00 0.00 0.00 74 1009.8